Location: Colonia Mina de C?rbuni
(46.1667°N, 22.7167°E)
Time: 06:29:09
(UTC+00:00)

Tiros 1 - Pass Details

Date: 28 April 2024
Orbit: 624 x 657 km, 48.4° (Epoch: 25 May)

Event Time Altitude Azimuth Distance (km) Brightness Sun altitude
Exits shadow 00:07:22 29° 110° (ESE) 1,160 8.4 -25.5°
Drops below altitude 10° 00:09:36 10° 110° (ESE) 1,995 9.7 -25.3°
Sets 00:11:54 0° 110° (ESE) 2,898 10.6 -25.1°
